Penticton, British Columbia

5:22 AM PDT on June 29, 2017 (GMT -0700)
Penticton

Weather History for CYYF - November, 2012

Change the Weather History Date:

Saturday, November 24, 2012

  Actual Average Record
Temperature  
Mean Temperature 36 °F -  
Max Temperature 45 °F 37 °F 50 °F (1997)
Min Temperature 28 °F 26 °F 1 °F (2010)
Degree Days  
Heating Degree Days 28    
Moisture  
Dew Point 33 °F    
Average Humidity 81    
Maximum Humidity 93    
Minimum Humidity 69    
Precipitation  
Precipitation 0.00 in 0.04 in - ()
Sea Level Pressure  
Sea Level Pressure 30.18 in    
Wind  
Wind Speed 8 mph ()    
Max Wind Speed 15 mph    
Max Gust Speed 22 mph    
Visibility 14.8 miles    
Events Rain    
Averages and records for this station are not official NWS values.
T = Trace of Precipitation, MM = Missing Value Source: Averaged Metar Reports

Daily Weather History Graph

Daily Weather History Graph

Search for Another Location

Airport or City:

Trip Planner

Search our weather history database for the weather conditions in past years. The results will help you decide how hot, cold, wet, or windy it might be!

Date:

Astronomy

Nov. 24, 2012 Rise Set
Actual Time 7:24 AM PST 4:06 PM PST
Civil Twilight 6:47 AM PST 4:42 PM PST
Nautical Twilight 6:08 AM PST 5:21 PM PST
Astronomical Twilight 5:29 AM PST 6:00 PM PST
Moon 2:07 PM PST (11/24) 3:30 AM PST (11/24)
Length of Visible Light 9h 54m
Length of Day
8h 41m
Waxing Gibbous, 88% of the Moon is Illuminated
Nov 24
Waxing Gibbous
Nov 28
Full
Dec 6
Last Quarter
Dec 13
New
Dec 19
First Quarter

Hourly Weather History & Observations

Time (PST) Temp. Windchill Dew Point Humidity Pressure Visibility Wind Dir Wind Speed Gust Speed Precip Events Conditions
12:00 AM 41.0 °F 34.7 °F 35.6 °F 81% 30.10 in 10.0 mi NNE 10.4 mph - N/A Rain Light Rain
1:00 AM 39.2 °F 32.0 °F 35.6 °F 87% 30.10 in 15.0 mi South 11.5 mph - N/A Rain Light Rain
2:00 AM 39.2 °F 32.0 °F 35.6 °F 87% 30.10 in 15.0 mi SSE 11.5 mph - N/A   Overcast
3:00 AM 39.2 °F 31.6 °F 35.6 °F 87% 30.11 in 15.0 mi SSE 12.7 mph - N/A   Mostly Cloudy
4:00 AM 39 °F - 36 °F 84% 30.12 in 15 mi South 15.0 mph - -   Partly Cloudy
4:00 AM 39.2 °F 30.8 °F 35.6 °F 87% 30.11 in 15.0 mi South 15.0 mph 21.9 mph N/A   Scattered Clouds
5:00 AM 39.2 °F 30.8 °F 35.6 °F 87% 30.14 in 15.0 mi SSE 15.0 mph - N/A   Scattered Clouds
6:00 AM 39.2 °F 35.0 °F 35.6 °F 87% 30.16 in 15.0 mi South 5.8 mph - N/A   Scattered Clouds
7:00 AM 39.2 °F 33.0 °F 35.6 °F 87% 30.19 in 15.0 mi South 9.2 mph - N/A   Mostly Cloudy
8:00 AM 37.4 °F 29.8 °F 33.8 °F 87% 30.20 in 15.0 mi South 11.5 mph - N/A   Scattered Clouds
8:25 AM 39.2 °F 32.0 °F 33.8 °F 81% 30.21 in 15.0 mi South 11.5 mph - N/A   Mostly Cloudy
9:00 AM 39.2 °F 33.0 °F 33.8 °F 81% 30.22 in 15.0 mi SSE 9.2 mph - N/A   Mostly Cloudy
10:00 AM 41 °F - 34 °F 69% 30.22 in 15 mi South 9.2 mph - -   Partly Cloudy
10:00 AM 41.0 °F 35.2 °F 33.8 °F 76% 30.22 in 15.0 mi South 9.2 mph - N/A   Mostly Cloudy
11:00 AM 42.8 °F 37.0 °F 33.8 °F 70% 30.22 in 15.0 mi SSE 10.4 mph - N/A   Mostly Cloudy
12:00 PM 44.6 °F 40.2 °F 35.6 °F 71% 30.21 in 15.0 mi South 8.1 mph - N/A   Scattered Clouds
1:00 PM 44.6 °F 40.2 °F 35.6 °F 71% 30.20 in 15.0 mi SSE 8.1 mph - N/A   Mostly Cloudy
2:00 PM 44.6 °F 40.7 °F 35.6 °F 71% 30.19 in 15.0 mi South 6.9 mph - N/A   Mostly Cloudy
3:00 PM 42.8 °F 40.1 °F 35.6 °F 76% 30.19 in 15.0 mi SE 4.6 mph - N/A   Mostly Cloudy
4:00 PM 42 °F - 35 °F 70% 30.20 in 15 mi South 2.3 mph - -   Mostly Cloudy
4:00 PM 42.8 °F 41.1 °F 35.6 °F 76% 30.20 in 15.0 mi South 3.5 mph - N/A   Mostly Cloudy
5:00 PM 42.8 °F 38.6 °F 35.6 °F 76% 30.18 in 15.0 mi South 6.9 mph - N/A   Mostly Cloudy
6:00 PM 37.4 °F - 32.0 °F 81% 30.18 in 15.0 mi NW 2.3 mph - N/A   Mostly Cloudy
6:44 PM 33.8 °F - 30.2 °F 87% 30.19 in 15.0 mi Variable 2.3 mph - N/A   Mostly Cloudy
7:00 PM 35.6 °F - 30.2 °F 81% 30.18 in 15.0 mi SE 2.3 mph - N/A   Scattered Clouds
8:00 PM 32.0 °F 28.7 °F 30.2 °F 93% 30.18 in 15.0 mi NE 3.5 mph - N/A   Partly Cloudy
9:00 PM 28.4 °F 24.6 °F 26.6 °F 93% 30.19 in 15.0 mi East 3.5 mph - N/A   Scattered Clouds
10:00 PM 29 °F - 26 °F 82% 30.21 in 15 mi NNE 2.3 mph - -   Mostly Cloudy
10:00 PM 28.4 °F 24.6 °F 24.8 °F 86% 30.21 in 15.0 mi NNE 3.5 mph - N/A   Mostly Cloudy
11:00 PM 30.2 °F 26.7 °F 26.6 °F 86% 30.21 in 15.0 mi NNE 3.5 mph - N/A   Mostly Cloudy